Location: Madrid
(40.4000°N, 3.6830°W)
Time: 01:58:57
(UTC+02:00)

ISS - Pass Details

Date: 17 July 2019
Orbit: 409 x 418 km, 51.6° (Epoch: 23 July)

Event Time Altitude Azimuth Distance (km) Brightness Sun altitude
Rises 03:52:56 0° 311° (NW) 2,347 0.3 -24.7°
Reaches altitude 10° 03:55:40 10° 336° (NNW) 1,482 -0.5 -24.5°
Maximum altitude 03:57:44 15° 14° (NNE) 1,198 -0.6 -24.3°
Drops below altitude 10° 03:59:48 10° 53° (NE) 1,477 -0.2 -24.2°
Sets 04:02:31 0° 77° (ENE) 2,336 0.6 -24.0°
